Time,TemperatureF,DewpointF,PressureIn,WindDirection,WindDirectionDegrees,WindSpeedMPH,WindSpeedGustMPH,Humidity,HourlyPrecipIn,Conditions,Clouds,dailyrainin,SoftwareType,DateUTC
2013-01-19 00:00:00,21.9,2.4,28.23,South,180,10.5,10.5,42,0.00,,---,0.00,VWS V14.01,2013-01-19 05:00:00,
2013-01-19 00:01:00,21.9,2.4,28.23,South,180,9.8,10.5,42,0.00,,---,0.00,VWS V14.01,2013-01-19 05:01:00,
2013-01-19 00:06:00,21.9,2.4,28.23,SW,225,5.8,6.3,42,0.00,,---,0.00,VWS V14.01,2013-01-19 05:06:00,
2013-01-19 00:11:00,22.1,2.0,28.26,South,180,7.8,10.5,41,0.00,,---,0.00,VWS V14.01,2013-01-19 05:11:00,
2013-01-19 00:16:00,22.3,1.6,28.26,SSW,202,4.3,5.4,40,0.00,,---,0.00,VWS V14.01,2013-01-19 05:16:00,
2013-01-19 00:21:00,22.5,1.8,28.26,SSW,202,4.9,5.8,40,0.00,,---,0.00,VWS V14.01,2013-01-19 05:21:00,
2013-01-19 00:26:00,22.3,2.7,28.23,ESE,112,0.0,0.9,42,0.00,,---,0.00,VWS V14.01,2013-01-19 05:26:00,
2013-01-19 00:31:00,22.1,2.5,28.23,North,0,0.0,0.0,42,0.00,,---,0.00,VWS V14.01,2013-01-19 05:31:00,
2013-01-19 00:36:00,22.1,3.0,28.23,NNW,338,2.0,2.0,43,0.00,,---,0.00,VWS V14.01,2013-01-19 05:36:00,
2013-01-19 00:41:00,21.9,2.4,28.23,SW,225,2.0,3.1,42,0.00,,---,0.00,VWS V14.01,2013-01-19 05:41:00,
2013-01-19 00:46:00,21.9,2.9,28.23,WSW,248,1.3,1.3,43,0.00,,---,0.00,VWS V14.01,2013-01-19 05:46:00,
2013-01-19 00:51:00,21.9,2.9,28.23,SSE,158,3.8,3.8,43,0.00,,---,0.00,VWS V14.01,2013-01-19 05:51:00,
2013-01-19 00:56:00,21.9,2.9,28.26,East,90,2.5,2.5,43,0.00,,---,0.00,VWS V14.01,2013-01-19 05:56:00,
2013-01-19 01:01:00,22.1,3.0,28.26,SSE,158,1.1,3.1,43,0.00,,---,0.00,VWS V14.01,2013-01-19 06:01:00,
2013-01-19 01:06:00,22.3,3.2,28.26,WNW,292,1.3,4.0,43,0.00,,---,0.00,VWS V14.01,2013-01-19 06:06:00,
2013-01-19 01:11:00,22.5,3.4,28.26,WNW,292,2.0,2.0,43,0.00,,---,0.00,VWS V14.01,2013-01-19 06:11:00,
2013-01-19 01:16:00,22.5,3.4,28.26,NW,315,3.8,3.8,43,0.00,,---,0.00,VWS V14.01,2013-01-19 06:16:00,
2013-01-19 01:21:00,22.6,3.5,28.26,WNW,292,5.6,5.8,43,0.00,,---,0.00,VWS V14.01,2013-01-19 06:21:00,
2013-01-19 01:26:00,22.6,3.5,28.26,NW,315,2.9,3.6,43,0.00,,---,0.00,VWS V14.01,2013-01-19 06:26:00,
2013-01-19 01:31:00,22.6,3.5,28.26,NNW,338,2.0,2.2,43,0.00,,---,0.00,VWS V14.01,2013-01-19 06:31:00,
2013-01-19 01:36:00,22.8,3.7,28.26,SSW,202,1.6,2.7,43,0.00,,---,0.00,VWS V14.01,2013-01-19 06:36:00,
2013-01-19 01:41:00,22.8,3.7,28.26,ESE,112,0.0,0.0,43,0.00,,---,0.00,VWS V14.01,2013-01-19 06:41:00,
2013-01-19 01:46:00,23.0,3.8,28.26,South,180,2.0,2.0,43,0.00,,---,0.00,VWS V14.01,2013-01-19 06:46:00,
2013-01-19 01:51:00,23.5,3.8,28.26,SSE,158,2.2,2.7,42,0.00,,---,0.00,VWS V14.01,2013-01-19 06:51:00,
2013-01-19 01:56:00,23.7,4.0,28.26,SSW,202,3.1,6.3,42,0.00,,---,0.00,VWS V14.01,2013-01-19 06:56:00,
2013-01-19 02:01:00,23.7,4.0,28.26,SW,225,4.0,4.9,42,0.00,,---,0.00,VWS V14.01,2013-01-19 07:01:00,
2013-01-19 02:06:00,23.9,4.2,28.26,SSW,202,4.3,5.6,42,0.00,,---,0.00,VWS V14.01,2013-01-19 07:06:00,
2013-01-19 02:11:00,24.3,4.5,28.26,SW,225,7.6,7.6,42,0.00,,---,0.00,VWS V14.01,2013-01-19 07:11:00,
2013-01-19 02:16:00,24.4,4.7,28.26,SSW,202,8.1,8.1,42,0.00,,---,0.00,VWS V14.01,2013-01-19 07:16:00,
2013-01-19 02:21:00,24.4,4.7,28.20,South,180,5.4,10.1,42,0.00,,---,0.00,VWS V14.01,2013-01-19 07:21:00,
2013-01-19 02:26:00,24.6,4.8,28.20,SW,225,6.0,6.0,42,0.00,,---,0.00,VWS V14.01,2013-01-19 07:26:00,
2013-01-19 02:31:00,24.6,4.8,28.20,SSW,202,6.0,6.0,42,0.00,,---,0.00,VWS V14.01,2013-01-19 07:31:00,
2013-01-19 02:36:00,25.0,4.1,28.20,SSW,202,7.8,7.8,40,0.00,,---,0.00,VWS V14.01,2013-01-19 07:36:00,
2013-01-19 02:41:00,25.2,4.8,28.20,SSW,202,4.9,5.6,41,0.00,,---,0.00,VWS V14.01,2013-01-19 07:41:00,
2013-01-19 02:46:00,25.3,4.4,28.20,SSW,202,5.6,7.8,40,0.00,,---,0.00,VWS V14.01,2013-01-19 07:46:00,
2013-01-19 02:52:00,25.3,4.4,28.20,WSW,248,4.3,7.6,40,0.00,,---,0.00,VWS V14.01,2013-01-19 07:52:00,
2013-01-19 02:57:00,25.5,4.6,28.20,West,270,3.8,8.7,40,0.00,,---,0.00,VWS V14.01,2013-01-19 07:57:00,
2013-01-19 03:02:00,26.1,5.1,28.20,South,180,8.5,10.1,40,0.00,,---,0.00,VWS V14.01,2013-01-19 08:02:00,
2013-01-19 03:07:00,26.2,5.2,28.20,South,180,6.5,12.1,40,0.00,,---,0.00,VWS V14.01,2013-01-19 08:07:00,
2013-01-19 03:12:00,26.4,4.8,28.20,SW,225,8.5,8.5,39,0.00,,---,0.00,VWS V14.01,2013-01-19 08:12:00,
2013-01-19 03:17:00,26.8,4.6,28.20,SSW,202,9.6,9.6,38,0.00,,---,0.00,VWS V14.01,2013-01-19 08:17:00,
2013-01-19 03:22:00,26.6,5.6,28.20,ENE,68,0.0,3.8,40,0.00,,---,0.00,VWS V14.01,2013-01-19 08:22:00,
2013-01-19 03:27:00,26.2,5.8,28.20,NNE,22,3.6,3.6,41,0.00,,---,0.00,VWS V14.01,2013-01-19 08:27:00,
2013-01-19 03:32:00,26.2,5.8,28.20,NNE,22,3.1,3.4,41,0.00,,---,0.00,VWS V14.01,2013-01-19 08:32:00,
2013-01-19 03:37:00,26.2,5.8,28.20,WSW,248,3.4,4.9,41,0.00,,---,0.00,VWS V14.01,2013-01-19 08:37:00,
2013-01-19 03:42:00,26.6,6.1,28.20,South,180,2.9,4.9,41,0.00,,---,0.00,VWS V14.01,2013-01-19 08:42:00,
2013-01-19 03:47:00,26.8,5.7,28.20,SSW,202,4.9,4.9,40,0.00,,---,0.00,VWS V14.01,2013-01-19 08:47:00,
2013-01-19 03:52:00,26.8,6.2,28.20,SW,225,5.8,5.8,41,0.00,,---,0.00,VWS V14.01,2013-01-19 08:52:00,
2013-01-19 03:57:00,26.6,6.1,28.20,SSW,202,7.8,7.8,41,0.00,,---,0.00,VWS V14.01,2013-01-19 08:57:00,
2013-01-19 04:02:00,26.6,6.1,28.20,SE,135,7.4,7.4,41,0.00,,---,0.00,VWS V14.01,2013-01-19 09:02:00,
2013-01-19 04:07:00,27.0,5.9,28.20,SSW,202,4.0,10.3,40,0.00,,---,0.00,VWS V14.01,2013-01-19 09:07:00,
2013-01-19 04:12:00,27.5,6.4,28.20,SSW,202,8.1,11.0,40,0.00,,---,0.00,VWS V14.01,2013-01-19 09:12:00,
2013-01-19 04:17:00,27.9,6.7,28.20,WSW,248,14.3,14.3,40,0.00,,---,0.00,VWS V14.01,2013-01-19 09:17:00,
2013-01-19 04:22:00,28.2,5.9,28.17,SSW,202,13.2,13.2,38,0.00,,---,0.00,VWS V14.01,2013-01-19 09:22:00,
2013-01-19 04:27:00,28.4,6.1,28.17,SSW,202,10.3,14.1,38,0.00,,---,0.00,VWS V14.01,2013-01-19 09:27:00,
2013-01-19 04:32:00,28.6,5.6,28.17,South,180,14.1,14.1,37,0.00,,---,0.00,VWS V14.01,2013-01-19 09:32:00,
2013-01-19 04:37:00,28.8,5.8,28.17,SSW,202,11.2,14.3,37,0.00,,---,0.00,VWS V14.01,2013-01-19 09:37:00,
2013-01-19 04:42:00,28.9,5.9,28.17,SSW,202,8.1,14.1,37,0.00,,---,0.00,VWS V14.01,2013-01-19 09:42:00,
2013-01-19 04:47:00,29.1,6.1,28.17,SSW,202,14.5,14.5,37,0.00,,---,0.00,VWS V14.01,2013-01-19 09:47:00,
2013-01-19 04:52:00,29.3,6.3,28.17,SW,225,8.1,12.5,37,0.00,,---,0.00,VWS V14.01,2013-01-19 09:52:00,
2013-01-19 04:57:00,29.3,6.3,28.17,SW,225,7.4,7.8,37,0.00,,---,0.00,VWS V14.01,2013-01-19 09:57:00,
2013-01-19 05:02:00,29.8,6.2,28.17,SW,225,9.8,12.8,36,0.00,,---,0.00,VWS V14.01,2013-01-19 10:02:00,
2013-01-19 05:07:00,29.8,6.8,28.17,SSW,202,8.1,12.3,37,0.00,,---,0.00,VWS V14.01,2013-01-19 10:07:00,
2013-01-19 05:12:00,30.2,6.5,28.17,South,180,2.9,15.2,36,0.00,,---,0.00,VWS V14.01,2013-01-19 10:12:00,
2013-01-19 05:17:00,30.2,6.5,28.17,SSW,202,7.8,12.5,36,0.00,,---,0.00,VWS V14.01,2013-01-19 10:17:00,
2013-01-19 05:22:00,30.6,6.2,28.14,South,180,15.9,17.5,35,0.00,,---,0.00,VWS V14.01,2013-01-19 10:22:00,
2013-01-19 05:27:00,30.6,6.2,28.14,SSW,202,7.8,7.8,35,0.00,,---,0.00,VWS V14.01,2013-01-19 10:27:00,
2013-01-19 05:32:00,30.7,7.0,28.14,SSW,202,12.3,17.2,36,0.00,,---,0.00,VWS V14.01,2013-01-19 10:32:00,
2013-01-19 05:37:00,30.9,6.5,28.17,SSW,202,14.8,14.8,35,0.00,,---,0.00,VWS V14.01,2013-01-19 10:37:00,
2013-01-19 05:42:00,30.7,7.0,28.17,SSW,202,7.4,10.5,36,0.00,,---,0.00,VWS V14.01,2013-01-19 10:42:00,
2013-01-19 05:47:00,30.9,7.1,28.17,SW,225,8.1,8.1,36,0.00,,---,0.00,VWS V14.01,2013-01-19 10:47:00,
2013-01-19 05:52:00,31.1,6.7,28.17,SSW,202,6.5,13.0,35,0.00,,---,0.00,VWS V14.01,2013-01-19 10:52:00,
2013-01-19 05:57:00,31.1,6.7,28.17,SE,135,6.5,10.1,35,0.00,,---,0.00,VWS V14.01,2013-01-19 10:57:00,
2013-01-19 06:02:00,31.1,7.3,28.17,SSW,202,9.2,10.5,36,0.00,,---,0.00,VWS V14.01,2013-01-19 11:02:00,
2013-01-19 06:07:00,31.1,7.3,28.17,SW,225,12.5,12.8,36,0.00,,---,0.00,VWS V14.01,2013-01-19 11:07:00,
2013-01-19 06:12:00,31.1,7.3,28.17,South,180,6.5,12.5,36,0.00,,---,0.00,VWS V14.01,2013-01-19 11:12:00,
2013-01-19 07:47:00,31.8,7.9,28.14,SSE,158,7.4,7.8,36,0.00,,---,0.00,VWS V14.01,2013-01-19 12:47:00,
2013-01-19 07:48:00,31.6,7.8,28.14,SSE,158,11.0,12.1,36,0.00,,---,0.00,VWS V14.01,2013-01-19 12:48:00,
2013-01-19 07:53:00,31.8,7.9,28.14,South,180,9.8,15.2,36,0.00,,---,0.00,VWS V14.01,2013-01-19 12:53:00,
2013-01-19 07:58:00,31.8,7.9,28.14,SSW,202,10.1,13.0,36,0.00,,---,0.00,VWS V14.01,2013-01-19 12:58:00,
2013-01-19 08:03:00,31.6,8.4,28.14,SSW,202,12.1,12.1,37,0.00,,---,0.00,VWS V14.01,2013-01-19 13:03:00,
2013-01-19 08:08:00,32.0,8.1,28.14,SSW,202,13.0,13.0,36,0.00,,---,0.00,VWS V14.01,2013-01-19 13:08:00,
2013-01-19 08:13:00,32.4,8.4,28.14,South,180,13.0,13.0,36,0.00,,---,0.00,VWS V14.01,2013-01-19 13:13:00,
2013-01-19 08:18:00,32.4,8.4,28.14,SSW,202,10.5,10.5,36,0.00,,---,0.00,VWS V14.01,2013-01-19 13:18:00,
2013-01-19 08:23:00,32.9,8.9,28.14,SW,225,6.5,7.4,36,0.00,,---,0.00,VWS V14.01,2013-01-19 13:23:00,
2013-01-19 08:28:00,33.8,8.4,28.14,South,180,10.5,10.5,34,0.00,,---,0.00,VWS V14.01,2013-01-19 13:28:00,
2013-01-19 08:33:00,33.1,8.4,28.14,SSE,158,10.7,10.7,35,0.00,,---,0.00,VWS V14.01,2013-01-19 13:33:00,
2013-01-19 08:38:00,32.9,8.3,28.14,SSW,202,10.7,10.7,35,0.00,,---,0.00,VWS V14.01,2013-01-19 13:38:00,
2013-01-19 08:43:00,32.7,8.1,28.14,SSW,202,10.7,12.1,35,0.00,,---,0.00,VWS V14.01,2013-01-19 13:43:00,
2013-01-19 08:48:00,32.7,8.1,28.14,SSW,202,11.4,11.4,35,0.00,,---,0.00,VWS V14.01,2013-01-19 13:48:00,
2013-01-19 08:53:00,32.7,8.1,28.14,WSW,248,8.5,11.0,35,0.00,,---,0.00,VWS V14.01,2013-01-19 13:53:00,
2013-01-19 08:58:00,32.9,8.3,28.14,SW,225,9.6,9.6,35,0.00,,---,0.00,VWS V14.01,2013-01-19 13:58:00,
2013-01-19 09:03:00,33.8,8.4,28.14,SSW,202,10.5,10.5,34,0.00,,---,0.00,VWS V14.01,2013-01-19 14:03:00,
2013-01-19 09:08:00,34.0,8.6,28.14,SSE,158,7.4,7.4,34,0.00,,---,0.00,VWS V14.01,2013-01-19 14:08:00,
2013-01-19 09:13:00,35.4,9.2,28.14,South,180,11.4,13.4,33,0.00,,---,0.00,VWS V14.01,2013-01-19 14:13:00,
2013-01-19 09:19:00,36.3,9.3,28.14,WSW,248,10.3,13.0,32,0.00,,---,0.00,VWS V14.01,2013-01-19 14:19:00,
2013-01-19 09:24:00,36.7,10.3,28.14,South,180,9.2,9.2,33,0.00,,---,0.00,VWS V14.01,2013-01-19 14:24:00,
2013-01-19 09:29:00,36.3,9.3,28.14,WSW,248,12.3,16.8,32,0.00,,---,0.00,VWS V14.01,2013-01-19 14:29:00,
2013-01-19 09:34:00,37.0,9.9,28.14,SSW,202,12.8,12.8,32,0.00,,---,0.00,VWS V14.01,2013-01-19 14:34:00,
2013-01-19 09:39:00,37.2,10.1,28.11,South,180,19.7,19.7,32,0.00,,---,0.00,VWS V14.01,2013-01-19 14:39:00,
2013-01-19 09:45:00,37.2,9.4,28.11,SSW,202,12.8,18.1,31,0.00,,---,0.00,VWS V14.01,2013-01-19 14:45:00,
2013-01-19 09:50:00,37.9,10.0,28.11,South,180,7.6,11.0,31,0.00,,---,0.00,VWS V14.01,2013-01-19 14:50:00,
2013-01-19 09:55:00,38.3,10.3,28.11,South,180,11.0,11.0,31,0.00,,---,0.00,VWS V14.01,2013-01-19 14:55:00,
2013-01-19 10:00:00,38.1,10.2,28.11,SSW,202,10.3,10.3,31,0.00,,---,0.00,VWS V14.01,2013-01-19 15:00:00,
2013-01-19 10:05:00,39.2,10.4,28.11,SW,225,13.2,15.4,30,0.00,,---,0.00,VWS V14.01,2013-01-19 15:05:00,
2013-01-19 10:10:00,39.6,10.7,28.14,WSW,248,12.5,13.2,30,0.00,,---,0.00,VWS V14.01,2013-01-19 15:10:00,
2013-01-19 10:15:00,41.2,11.4,28.14,SW,225,6.5,9.8,29,0.00,,---,0.00,VWS V14.01,2013-01-19 15:15:00,
2013-01-19 10:20:00,40.8,11.0,28.14,South,180,15.2,19.2,29,0.00,,---,0.00,VWS V14.01,2013-01-19 15:20:00,
2013-01-19 10:25:00,41.5,11.7,28.17,SW,225,9.8,13.0,29,0.00,,---,0.00,VWS V14.01,2013-01-19 15:25:00,
2013-01-19 10:30:00,42.3,12.3,28.17,West,270,8.5,8.7,29,0.00,,---,0.00,VWS V14.01,2013-01-19 15:30:00,
2013-01-19 10:35:00,42.8,12.8,28.17,South,180,5.6,8.5,29,0.00,,---,0.00,VWS V14.01,2013-01-19 15:35:00,
2013-01-19 10:40:00,43.0,12.9,28.14,SW,225,7.4,10.1,29,0.00,,---,0.00,VWS V14.01,2013-01-19 15:40:00,
2013-01-19 10:45:00,41.7,11.8,28.14,SSW,202,8.5,10.7,29,0.00,,---,0.00,VWS V14.01,2013-01-19 15:45:00,
2013-01-19 10:50:00,39.9,10.2,28.14,SSW,202,10.7,11.0,29,0.00,,---,0.00,VWS V14.01,2013-01-19 15:50:00,
2013-01-19 10:55:00,40.8,11.8,28.11,SSW,202,4.0,9.8,30,0.00,,---,0.00,VWS V14.01,2013-01-19 15:55:00,
2013-01-19 11:00:00,42.3,12.3,28.11,SSW,202,7.8,9.6,29,0.00,,---,0.00,VWS V14.01,2013-01-19 16:00:00,
2013-01-19 11:05:00,41.2,11.4,28.11,SSW,202,9.2,22.4,29,0.00,,---,0.00,VWS V14.01,2013-01-19 16:05:00,
2013-01-19 11:10:00,40.5,11.5,28.11,SSW,202,12.5,12.5,30,0.00,,---,0.00,VWS V14.01,2013-01-19 16:10:00,
2013-01-19 11:15:00,40.5,11.5,28.11,ESE,112,13.2,13.2,30,0.00,,---,0.00,VWS V14.01,2013-01-19 16:15:00,
2013-01-19 11:20:00,39.9,11.0,28.11,WSW,248,13.0,19.5,30,0.00,,---,0.00,VWS V14.01,2013-01-19 16:20:00,
2013-01-19 11:25:00,40.5,11.5,28.08,WSW,248,12.1,17.2,30,0.00,,---,0.00,VWS V14.01,2013-01-19 16:25:00,
2013-01-19 11:30:00,41.0,12.0,28.08,South,180,10.1,15.9,30,0.00,,---,0.00,VWS V14.01,2013-01-19 16:30:00,
2013-01-19 11:35:00,40.5,11.5,28.08,SW,225,18.8,18.8,30,0.00,,---,0.00,VWS V14.01,2013-01-19 16:35:00,
2013-01-19 11:40:00,40.8,11.8,28.08,SSW,202,11.0,13.9,30,0.00,,---,0.00,VWS V14.01,2013-01-19 16:40:00,
2013-01-19 11:45:00,41.2,11.4,28.08,SSW,202,10.5,10.5,29,0.00,,---,0.00,VWS V14.01,2013-01-19 16:45:00,
2013-01-19 11:50:00,41.7,11.8,28.08,SW,225,8.5,8.5,29,0.00,,---,0.00,VWS V14.01,2013-01-19 16:50:00,
2013-01-19 11:55:00,42.1,12.1,28.08,SSW,202,7.6,7.6,29,0.00,,---,0.00,VWS V14.01,2013-01-19 16:55:00,
2013-01-19 12:00:00,42.4,12.4,28.08,SSW,202,5.8,5.8,29,0.00,,---,0.00,VWS V14.01,2013-01-19 17:00:00,
2013-01-19 12:05:00,41.5,11.7,28.08,South,180,7.8,7.8,29,0.00,,---,0.00,VWS V14.01,2013-01-19 17:05:00,
2013-01-19 12:10:00,41.5,12.4,28.08,SSW,202,10.7,10.7,30,0.00,,---,0.00,VWS V14.01,2013-01-19 17:10:00,
2013-01-19 12:15:00,41.0,12.0,28.05,South,180,7.2,7.2,30,0.00,,---,0.00,VWS V14.01,2013-01-19 17:15:00,
2013-01-19 12:20:00,41.5,12.4,28.05,West,270,6.0,13.6,30,0.00,,---,0.00,VWS V14.01,2013-01-19 17:20:00,
2013-01-19 12:25:00,41.9,12.7,28.05,SSW,202,6.3,6.3,30,0.00,,---,0.00,VWS V14.01,2013-01-19 17:25:00,
2013-01-19 12:30:00,41.9,12.7,28.05,SSW,202,2.5,2.5,30,0.00,,---,0.00,VWS V14.01,2013-01-19 17:30:00,
2013-01-19 12:35:00,42.1,12.9,28.05,SSE,158,5.8,8.1,30,0.00,,---,0.00,VWS V14.01,2013-01-19 17:35:00,
2013-01-19 12:40:00,42.8,13.5,28.05,SW,225,3.4,3.4,30,0.00,,---,0.00,VWS V14.01,2013-01-19 17:40:00,
2013-01-19 12:45:00,42.6,13.4,28.05,SSE,158,3.8,3.8,30,0.00,,---,0.00,VWS V14.01,2013-01-19 17:45:00,
2013-01-19 12:50:00,43.9,14.5,28.05,South,180,4.0,4.0,30,0.00,,---,0.00,VWS V14.01,2013-01-19 17:50:00,
2013-01-19 12:55:00,44.1,13.9,28.05,SSW,202,10.3,10.3,29,0.00,,---,0.00,VWS V14.01,2013-01-19 17:55:00,
2013-01-19 13:00:00,45.1,14.8,28.05,South,180,3.1,3.1,29,0.00,,---,0.00,VWS V14.01,2013-01-19 18:00:00,
2013-01-19 13:05:00,45.5,15.1,28.05,SSW,202,8.1,8.1,29,0.00,,---,0.00,VWS V14.01,2013-01-19 18:05:00,
2013-01-19 13:10:00,44.1,13.9,28.05,WSW,248,6.7,7.4,29,0.00,,---,0.00,VWS V14.01,2013-01-19 18:10:00,
2013-01-19 13:15:00,44.4,14.2,28.05,SSW,202,0.9,0.9,29,0.00,,---,0.00,VWS V14.01,2013-01-19 18:15:00,
2013-01-19 13:20:00,45.5,15.1,28.05,SSW,202,10.7,10.7,29,0.00,,---,0.00,VWS V14.01,2013-01-19 18:20:00,
2013-01-19 13:26:00,45.3,14.9,28.02,SW,225,8.7,8.7,29,0.00,,---,1.33,VWS V14.01,2013-01-19 18:26:00,
2013-01-19 13:31:00,46.2,15.7,28.02,SSW,202,8.1,8.1,29,0.00,,---,1.33,VWS V14.01,2013-01-19 18:31:00,
2013-01-19 13:36:00,46.9,15.6,28.02,South,180,5.4,5.4,28,0.00,,---,1.33,VWS V14.01,2013-01-19 18:36:00,
2013-01-19 13:41:00,46.4,15.1,28.02,West,270,13.2,13.2,28,0.00,,---,1.33,VWS V14.01,2013-01-19 18:41:00,
2013-01-19 13:46:00,47.7,16.2,28.02,WSW,248,10.5,10.5,28,0.00,,---,1.33,VWS V14.01,2013-01-19 18:46:00,
2013-01-19 13:51:00,48.2,16.6,28.02,NE,45,3.4,3.4,28,0.00,,---,1.33,VWS V14.01,2013-01-19 18:51:00,
2013-01-19 13:56:00,48.2,16.6,28.02,SSW,202,8.5,8.5,28,0.00,,---,1.33,VWS V14.01,2013-01-19 18:56:00,
2013-01-19 14:02:00,47.8,16.3,28.02,SSW,202,3.8,5.6,28,0.00,,---,1.33,VWS V14.01,2013-01-19 19:02:00,
2013-01-19 14:07:00,48.2,15.8,28.02,WNW,292,3.6,3.6,27,0.00,,---,1.33,VWS V14.01,2013-01-19 19:07:00,
2013-01-19 14:12:00,45.9,14.6,28.02,SSW,202,4.3,4.3,28,0.00,,---,1.33,VWS V14.01,2013-01-19 19:12:00,
2013-01-19 14:17:00,46.2,15.7,28.02,SSW,202,4.0,4.0,29,0.00,,---,1.33,VWS V14.01,2013-01-19 19:17:00,
2013-01-19 14:23:00,46.2,15.7,28.02,SW,225,8.1,8.1,29,0.00,,---,1.33,VWS V14.01,2013-01-19 19:23:00,
2013-01-19 14:28:00,46.2,15.7,28.02,SSW,202,6.5,6.5,29,0.00,,---,1.33,VWS V14.01,2013-01-19 19:28:00,
2013-01-19 14:33:00,45.1,14.8,28.02,SSW,202,5.6,5.6,29,0.00,,---,1.33,VWS V14.01,2013-01-19 19:33:00,
2013-01-19 14:38:00,44.6,15.1,28.02,SW,225,4.7,5.4,30,0.00,,---,1.33,VWS V14.01,2013-01-19 19:38:00,
2013-01-19 14:43:00,44.2,14.8,28.02,SW,225,3.8,3.8,30,0.00,,---,1.33,VWS V14.01,2013-01-19 19:43:00,
2013-01-19 14:48:00,44.2,15.5,28.02,South,180,1.3,1.3,31,0.00,,---,1.33,VWS V14.01,2013-01-19 19:48:00,
2013-01-19 14:53:00,44.4,16.4,28.02,WSW,248,2.5,2.5,32,0.00,,---,1.33,VWS V14.01,2013-01-19 19:53:00,
2013-01-19 14:58:00,44.8,16.7,28.02,WSW,248,2.5,2.5,32,0.00,,---,1.33,VWS V14.01,2013-01-19 19:58:00,
2013-01-19 15:04:00,44.2,17.0,28.02,SSW,202,7.8,7.8,33,0.00,,---,1.33,VWS V14.01,2013-01-19 20:04:00,
2013-01-19 15:09:00,46.2,18.0,28.02,WSW,248,3.6,3.6,32,0.00,,---,1.33,VWS V14.01,2013-01-19 20:09:00,
2013-01-19 15:14:00,47.5,17.6,28.02,South,180,3.1,3.1,30,0.00,,---,1.33,VWS V14.01,2013-01-19 20:14:00,
2013-01-19 15:19:00,47.3,17.5,28.02,SSW,202,7.6,7.6,30,0.00,,---,1.33,VWS V14.01,2013-01-19 20:19:00,
2013-01-19 15:24:00,47.7,17.8,28.02,WNW,292,4.3,7.6,30,0.00,,---,1.33,VWS V14.01,2013-01-19 20:24:00,
2013-01-19 15:30:00,45.3,15.7,28.02,SSW,202,10.3,10.3,30,0.00,,---,1.33,VWS V14.01,2013-01-19 20:30:00,
2013-01-19 15:35:00,45.1,15.6,28.02,ESE,112,1.3,1.3,30,0.00,,---,1.33,VWS V14.01,2013-01-19 20:35:00,
2013-01-19 15:40:00,44.2,15.5,28.02,South,180,3.4,3.4,31,0.00,,---,1.33,VWS V14.01,2013-01-19 20:40:00,
2013-01-19 15:45:00,43.5,15.6,28.02,NW,315,6.0,6.0,32,0.00,,---,1.33,VWS V14.01,2013-01-19 20:45:00,
2013-01-19 15:50:00,42.8,16.4,28.02,SSE,158,6.5,6.5,34,0.00,,---,1.33,VWS V14.01,2013-01-19 20:50:00,
2013-01-19 15:55:00,42.8,16.4,28.02,South,180,5.6,5.6,34,0.00,,---,1.33,VWS V14.01,2013-01-19 20:55:00,
2013-01-19 16:00:00,42.4,16.7,28.02,SSE,158,6.0,6.0,35,0.00,,---,1.33,VWS V14.01,2013-01-19 21:00:00,
2013-01-19 16:05:00,42.1,16.4,28.02,ENE,68,4.9,4.9,35,0.00,,---,1.33,VWS V14.01,2013-01-19 21:05:00,
2013-01-19 16:10:00,41.7,16.1,28.02,SSW,202,1.6,2.9,35,0.00,,---,1.33,VWS V14.01,2013-01-19 21:10:00,
2013-01-19 16:15:00,41.5,16.6,28.02,SSW,202,1.6,1.6,36,0.00,,---,1.33,VWS V14.01,2013-01-19 21:15:00,
2013-01-19 16:21:00,41.5,15.9,28.02,NNW,338,3.1,3.1,35,0.00,,---,1.33,VWS V14.01,2013-01-19 21:21:00,
2013-01-19 16:26:00,41.4,16.4,28.02,NNW,338,3.1,3.1,36,0.00,,---,1.33,VWS V14.01,2013-01-19 21:26:00,
2013-01-19 16:31:00,41.0,16.7,28.02,SSW,202,4.3,4.3,37,0.00,,---,1.33,VWS V14.01,2013-01-19 21:31:00,
2013-01-19 16:36:00,40.8,17.2,28.02,ENE,68,2.9,4.3,38,0.00,,---,1.33,VWS V14.01,2013-01-19 21:36:00,
2013-01-19 16:41:00,40.6,17.0,28.02,South,180,4.0,4.0,38,0.00,,---,1.33,VWS V14.01,2013-01-19 21:41:00,
2013-01-19 16:46:00,40.5,16.9,28.02,SW,225,3.4,3.4,38,0.00,,---,1.33,VWS V14.01,2013-01-19 21:46:00,
2013-01-19 16:51:00,40.3,16.7,28.02,SW,225,3.4,3.4,38,0.00,,---,1.33,VWS V14.01,2013-01-19 21:51:00,
2013-01-19 16:56:00,40.3,16.7,28.02,SSW,202,5.6,5.6,38,0.00,,---,1.33,VWS V14.01,2013-01-19 21:56:00,
2013-01-19 17:01:00,40.1,16.5,28.02,South,180,5.4,5.4,38,0.00,,---,1.33,VWS V14.01,2013-01-19 22:01:00,
2013-01-19 17:07:00,40.3,16.7,28.02,SSE,158,5.6,5.6,38,0.00,,---,1.33,VWS V14.01,2013-01-19 22:07:00,
2013-01-19 17:12:00,40.3,16.1,28.02,WSW,248,7.8,7.8,37,0.00,,---,1.33,VWS V14.01,2013-01-19 22:12:00,
2013-01-19 17:17:00,40.3,16.7,28.02,WSW,248,7.8,7.8,38,0.00,,---,1.33,VWS V14.01,2013-01-19 22:17:00,
2013-01-19 17:22:00,40.3,16.7,28.02,SSW,202,3.8,4.9,38,0.00,,---,1.33,VWS V14.01,2013-01-19 22:22:00,
2013-01-19 17:27:00,40.1,16.5,28.02,SSW,202,8.1,8.1,38,0.00,,---,1.33,VWS V14.01,2013-01-19 22:27:00,
2013-01-19 17:32:00,39.9,16.4,28.02,South,180,4.7,8.7,38,0.00,,---,1.33,VWS V14.01,2013-01-19 22:32:00,
2013-01-19 17:37:00,39.7,16.8,28.02,SSW,202,7.2,7.2,39,0.00,,---,1.33,VWS V14.01,2013-01-19 22:37:00,
2013-01-19 17:42:00,39.4,16.5,28.02,SSW,202,7.2,7.2,39,0.00,,---,1.33,VWS V14.01,2013-01-19 22:42:00,
2013-01-19 17:48:00,39.9,17.0,28.02,South,180,7.8,7.8,39,0.00,,---,1.33,VWS V14.01,2013-01-19 22:48:00,
2013-01-19 17:53:00,40.3,16.7,28.02,SSW,202,13.4,13.4,38,0.00,,---,1.33,VWS V14.01,2013-01-19 22:53:00,
2013-01-19 17:58:00,40.5,16.9,27.99,SSW,202,1.3,1.3,38,0.00,,---,1.33,VWS V14.01,2013-01-19 22:58:00,
2013-01-19 18:03:00,40.5,16.9,27.99,SSW,202,5.8,5.8,38,0.00,,---,1.33,VWS V14.01,2013-01-19 23:03:00,
2013-01-19 18:08:00,40.3,17.3,27.99,SSE,158,6.5,6.5,39,0.00,,---,1.33,VWS V14.01,2013-01-19 23:08:00,
2013-01-19 18:13:00,40.3,16.7,27.99,SSW,202,6.3,6.3,38,0.00,,---,1.33,VWS V14.01,2013-01-19 23:13:00,
2013-01-19 18:18:00,40.1,16.5,27.99,SSW,202,7.2,7.2,38,0.00,,---,1.33,VWS V14.01,2013-01-19 23:18:00,
2013-01-19 18:23:00,40.3,16.7,27.99,SSW,202,8.5,8.5,38,0.00,,---,1.33,VWS V14.01,2013-01-19 23:23:00,
2013-01-19 18:28:00,40.3,16.7,27.99,SSW,202,11.0,11.0,38,0.00,,---,1.33,VWS V14.01,2013-01-19 23:28:00,
2013-01-19 18:33:00,40.5,16.3,27.99,SSW,202,7.4,7.4,37,0.00,,---,1.33,VWS V14.01,2013-01-19 23:33:00,
2013-01-19 18:39:00,40.5,15.6,27.99,SSW,202,7.8,7.8,36,0.00,,---,1.33,VWS V14.01,2013-01-19 23:39:00,
2013-01-19 18:44:00,40.5,15.6,28.02,SSW,202,9.8,9.8,36,0.00,,---,1.33,VWS V14.01,2013-01-19 23:44:00,
2013-01-19 18:49:00,40.5,15.0,28.02,SSW,202,9.4,9.4,35,0.00,,---,1.33,VWS V14.01,2013-01-19 23:49:00,
2013-01-19 18:54:00,40.5,15.0,28.02,SSW,202,10.7,10.7,35,0.00,,---,1.33,VWS V14.01,2013-01-19 23:54:00,
2013-01-19 19:00:00,40.6,15.1,28.02,South,180,7.4,7.4,35,0.00,,---,1.33,VWS V14.01,2013-01-20 00:00:00,
2013-01-19 19:05:00,40.6,14.5,28.02,SSW,202,6.5,6.5,34,0.00,,---,1.33,VWS V14.01,2013-01-20 00:05:00,
2013-01-19 19:10:00,40.8,14.6,27.96,SSW,202,11.0,13.0,34,0.00,,---,1.33,VWS V14.01,2013-01-20 00:10:00,
2013-01-19 19:15:00,41.0,14.1,27.96,SW,225,7.8,9.6,33,0.00,,---,1.33,VWS V14.01,2013-01-20 00:15:00,
2013-01-19 19:20:00,40.6,14.5,27.96,SSW,202,5.6,6.5,34,0.00,,---,1.33,VWS V14.01,2013-01-20 00:20:00,
2013-01-19 19:25:00,40.6,14.5,27.96,SW,225,6.5,8.5,34,0.00,,---,1.33,VWS V14.01,2013-01-20 00:25:00,
2013-01-19 19:30:00,41.0,14.1,27.96,South,180,9.8,9.8,33,0.00,,---,1.33,VWS V14.01,2013-01-20 00:30:00,
2013-01-19 19:35:00,41.2,13.6,27.96,SSW,202,6.0,6.0,32,0.00,,---,1.33,VWS V14.01,2013-01-20 00:35:00,
2013-01-19 19:40:00,41.0,13.4,27.96,SSW,202,7.4,7.4,32,0.00,,---,1.33,VWS V14.01,2013-01-20 00:40:00,
2013-01-19 19:45:00,41.2,13.6,27.96,SSW,202,9.0,9.0,32,0.00,,---,1.33,VWS V14.01,2013-01-20 00:45:00,
2013-01-19 19:50:00,41.0,13.4,27.96,SSW,202,5.4,8.7,32,0.00,,---,1.33,VWS V14.01,2013-01-20 00:50:00,
2013-01-19 19:55:00,40.8,13.3,27.93,SSW,202,6.9,6.9,32,0.00,,---,1.33,VWS V14.01,2013-01-20 00:55:00,
2013-01-19 20:00:00,40.6,13.8,27.93,SSW,202,5.4,5.4,33,0.00,,---,1.33,VWS V14.01,2013-01-20 01:00:00,
2013-01-19 20:05:00,41.0,13.4,27.93,SW,225,10.5,10.5,32,0.00,,---,1.33,VWS V14.01,2013-01-20 01:05:00,
2013-01-19 20:10:00,41.2,13.6,27.96,SSW,202,5.8,5.8,32,0.00,,---,1.33,VWS V14.01,2013-01-20 01:10:00,
2013-01-19 20:15:00,41.4,13.0,27.96,SW,225,9.0,12.3,31,0.00,,---,1.33,VWS V14.01,2013-01-20 01:15:00,
2013-01-19 20:20:00,41.4,13.0,27.96,South,180,11.0,11.0,31,0.00,,---,1.33,VWS V14.01,2013-01-20 01:20:00,
2013-01-19 20:25:00,41.5,13.2,27.96,SSW,202,5.6,5.6,31,0.00,,---,1.33,VWS V14.01,2013-01-20 01:25:00,
2013-01-19 20:30:00,41.9,13.5,27.96,SW,225,7.8,9.8,31,0.00,,---,1.33,VWS V14.01,2013-01-20 01:30:00,
2013-01-19 20:35:00,42.1,13.6,27.96,South,180,8.1,8.1,31,0.00,,---,1.33,VWS V14.01,2013-01-20 01:35:00,
2013-01-19 20:40:00,41.7,13.3,27.96,South,180,10.5,10.5,31,0.00,,---,1.33,VWS V14.01,2013-01-20 01:40:00,
2013-01-19 20:45:00,41.5,13.2,27.96,SSE,158,9.0,9.8,31,0.00,,---,1.33,VWS V14.01,2013-01-20 01:45:00,
2013-01-19 20:50:00,41.2,12.9,27.96,SSE,158,14.8,14.8,31,0.00,,---,1.33,VWS V14.01,2013-01-20 01:50:00,
2013-01-19 20:56:00,41.4,13.7,27.96,South,180,10.7,13.0,32,0.00,,---,1.33,VWS V14.01,2013-01-20 01:56:00,
2013-01-19 21:01:00,41.2,13.6,27.96,South,180,10.3,10.7,32,0.00,,---,1.33,VWS V14.01,2013-01-20 02:01:00,
2013-01-19 21:06:00,41.2,13.6,27.96,South,180,13.0,17.7,32,0.00,,---,1.33,VWS V14.01,2013-01-20 02:06:00,
2013-01-19 21:11:00,41.4,13.7,27.93,South,180,10.5,17.7,32,0.00,,---,1.33,VWS V14.01,2013-01-20 02:11:00,
2013-01-19 21:16:00,41.7,14.1,27.93,SSW,202,10.3,14.1,32,0.00,,---,1.33,VWS V14.01,2013-01-20 02:16:00,
2013-01-19 21:21:00,42.1,14.4,27.93,SSE,158,16.6,16.6,32,0.00,,---,1.33,VWS V14.01,2013-01-20 02:21:00,
2013-01-19 21:26:00,42.1,14.4,27.93,SSE,158,18.6,18.6,32,0.00,,---,1.33,VWS V14.01,2013-01-20 02:26:00,
2013-01-19 21:31:00,42.1,14.4,27.93,SSE,158,15.4,15.4,32,0.00,,---,1.33,VWS V14.01,2013-01-20 02:31:00,
2013-01-19 21:36:00,42.3,14.5,27.93,South,180,13.2,15.4,32,0.00,,---,1.33,VWS V14.01,2013-01-20 02:36:00,
2013-01-19 21:41:00,42.4,14.7,27.93,South,180,14.8,22.8,32,0.00,,---,1.33,VWS V14.01,2013-01-20 02:41:00,
2013-01-19 21:46:00,42.4,14.7,27.93,SSW,202,23.3,24.4,32,0.00,,---,1.33,VWS V14.01,2013-01-20 02:46:00,
2013-01-19 21:51:00,42.3,14.5,27.93,South,180,10.7,12.3,32,0.00,,---,1.33,VWS V14.01,2013-01-20 02:51:00,
2013-01-19 21:56:00,42.6,15.6,27.93,SSW,202,19.2,22.4,33,0.00,,---,1.33,VWS V14.01,2013-01-20 02:56:00,
2013-01-19 22:01:00,42.8,15.0,27.93,SSW,202,12.1,22.6,32,0.00,,---,1.33,VWS V14.01,2013-01-20 03:01:00,
2013-01-19 22:06:00,42.8,15.0,27.93,SSW,202,19.7,19.7,32,0.00,,---,1.33,VWS V14.01,2013-01-20 03:06:00,
2013-01-19 22:11:00,42.6,15.6,27.93,SSE,158,10.1,10.1,33,0.00,,---,1.33,VWS V14.01,2013-01-20 03:11:00,
2013-01-19 22:16:00,42.6,15.6,27.93,SSW,202,10.5,15.9,33,0.00,,---,1.33,VWS V14.01,2013-01-20 03:16:00,
2013-01-19 22:21:00,43.0,15.2,27.93,SW,225,13.0,15.4,32,0.00,,---,1.33,VWS V14.01,2013-01-20 03:21:00,
2013-01-19 22:27:00,43.0,15.9,27.93,South,180,15.4,15.4,33,0.00,,---,1.33,VWS V14.01,2013-01-20 03:27:00,
2013-01-19 22:32:00,43.0,15.9,27.93,South,180,16.6,16.6,33,0.00,,---,1.33,VWS V14.01,2013-01-20 03:32:00,
2013-01-19 22:37:00,43.0,15.9,27.90,SSW,202,12.1,16.1,33,0.00,,---,1.33,VWS V14.01,2013-01-20 03:37:00,
2013-01-19 22:42:00,43.0,15.9,27.90,South,180,10.7,16.1,33,0.00,,---,1.33,VWS V14.01,2013-01-20 03:42:00,
2013-01-19 22:47:00,42.8,15.7,27.90,South,180,10.3,10.3,33,0.00,,---,1.33,VWS V14.01,2013-01-20 03:47:00,
2013-01-19 22:52:00,43.0,15.9,27.90,South,180,10.3,14.5,33,0.00,,---,1.33,VWS V14.01,2013-01-20 03:52:00,
2013-01-19 22:57:00,42.8,15.7,27.90,SSW,202,10.5,10.5,33,0.00,,---,1.33,VWS V14.01,2013-01-20 03:57:00,
2013-01-19 23:02:00,42.8,16.4,27.90,South,180,12.5,13.4,34,0.00,,---,1.33,VWS V14.01,2013-01-20 04:02:00,
2013-01-19 23:07:00,42.8,16.4,27.90,South,180,9.6,10.3,34,0.00,,---,1.33,VWS V14.01,2013-01-20 04:07:00,
2013-01-19 23:13:00,43.0,15.9,27.90,South,180,15.4,15.4,33,0.00,,---,1.33,VWS V14.01,2013-01-20 04:13:00,
2013-01-19 23:18:00,43.2,16.0,27.90,South,180,9.6,13.2,33,0.00,,---,1.33,VWS V14.01,2013-01-20 04:18:00,
2013-01-19 23:23:00,43.2,16.0,27.90,SSW,202,10.3,10.7,33,0.00,,---,1.33,VWS V14.01,2013-01-20 04:23:00,
2013-01-19 23:28:00,43.0,15.9,27.90,SSW,202,9.8,14.3,33,0.00,,---,1.33,VWS V14.01,2013-01-20 04:28:00,
2013-01-19 23:33:00,43.3,16.2,27.90,SSW,202,6.5,8.5,33,0.00,,---,1.33,VWS V14.01,2013-01-20 04:33:00,
2013-01-19 23:38:00,43.3,15.5,27.90,SSW,202,10.7,11.9,32,0.00,,---,1.33,VWS V14.01,2013-01-20 04:38:00,
2013-01-19 23:43:00,43.2,16.0,27.90,SSE,158,4.9,10.3,33,0.00,,---,1.33,VWS V14.01,2013-01-20 04:43:00,
2013-01-19 23:48:00,43.3,16.2,27.90,SSW,202,6.0,7.4,33,0.00,,---,1.33,VWS V14.01,2013-01-20 04:48:00,
2013-01-19 23:53:00,43.3,16.2,27.90,SSW,202,6.3,12.5,33,0.00,,---,1.33,VWS V14.01,2013-01-20 04:53:00,
2013-01-19 23:58:00,43.5,15.6,27.90,SSW,202,7.8,14.8,32,0.00,,---,0.00,VWS V14.01,2013-01-20 04:58:00,